Volver al catálogo

FENGYUN 1C DEB

ActivoSSO
NORAD 29751·DEBRIS·🇨🇳 China

Lanzado May 10, 1999 desde Taiyuan Satellite Launch Center

Loading…

Próximos Pases (próximas 24 horas)

TLE

ActualizadoSource: Space-Track

Época: Sep 14, 2026, 00:20 UTC

1 29751U 99025AR  26257.01438530  .00000211  00000-0  10580-3 0  9996
2 29751  98.5174 281.6109 0089914  57.9159 332.9698 14.23822596 19893

Sigue FENGYUN 1C DEB en tiempo real con AllMySat

Download on the App Store